{"data":{"norad_id":69212,"epoch":"2026-09-20T00:38:25.596960Z","epoch_age_seconds":67869,"freshness":"FRESH","line1":"1 69212U 26115B   26263.02668515  .00023170  00000+0  71792-3 0  9998","line2":"2 69212  97.2840 279.0604 0001980  84.9718 275.1750 15.33439336 19215","mean_motion":15.33439336,"eccentricity":0.000198,"inclination_deg":97.284,"raan_deg":279.0604,"arg_perigee_deg":84.9718,"mean_anomaly_deg":275.175,"bstar":0.00071792,"rev_number":1921,"period_min":93.90655151421,"perigee_km":464.20497459777,"apogee_km":466.91507862031,"semimajor_km":6843.697026609,"source":"CELESTRAK","updated_at":"2026-09-20T09:00:44.101870Z"}}